Content
SEND FEEDBACK

Daily
Averages
Monthly
Summary
Brazil

NUCLEO BANDEIRANTE, DISTRITO FEDERAL


Home > South America > Brazil > Distrito Federal
Elevation: 3481 feet     Latitude: 15 52S     Longitude: 047 55W

WEATHER
 
SELECT A DAY
Number of Records: 185,928;   Date Range: 6/30/96 - 9/29/14
 
SHARE

PRINT THIS DATA

[ ← Previous Day ]
WEATHER ALMANAC - JANUARY 31, 2013
[ Next Day → ]
[ °C ]   °F
Weather ElementAverageHighLow
Temperature70.9 °F77 °F (12:00 pm)64.4 °F (6:00 am)
Dewpoint65 °F68 °F (6:00 pm)62.6 °F (1:00 am)
Humidity81.3 %94 % (3:00 am)64 % (4:00 pm)
Barometer28.79 in30.12 in (11:00 am) (7:00 pm)
Wind Speed5.4 mph9.2 mph (2:00 pm)
Weather ElementAverage
Visibility7 mi
Wind DirectionESE (116.1 °)

Weather ElementTotal
Precipitation---
Cooling Degree Days5.7 (Base 65)
Growing Degree Days20.7 (Base 50)
Averaged from 28 records on January 31, 2013
WEATHER CONDITIONS BREAKOUT
WIND DIRECTION BREAKOUT
WEATHER BY HOUR - JANUARY 31, 2013
[ °C ]   °F
Local TimeTemperatureDewpointHumidityBarometerVisibilityWind DirectionWind SpeedGust SpeedPrecipitationEventsConditions
1:00 AM68.0 °F62.6 °F83 %30.09 in6.2 miSSW (200°)2.3 mphMostly Cloudy
2:00 AM68.0 °F62.6 °F83 %30.09 in6.2 miSSE (160°)2.3 mphMostly Cloudy
3:00 AM66.2 °F64.4 °F94 %30.06 in6.2 miENE (70°)2.3 mphMostly Cloudy
4:00 AM66.0 °F63.0 °F88 %12.0 miEast (100°)8.1 mphPartly Cloudy
4:00 AM66.2 °F62.6 °F88 %30.06 in6.2 miEast (100°)8.1 mphMostly Cloudy
4:30 AM66.2 °F64.4 °F94 %30.06 in6.2 miEast (90°)8.1 mphMostly Cloudy
5:00 AM66.2 °F64.4 °F94 %30.04 in6.2 miESE (110°)4.6 mphMostly Cloudy
6:00 AM64.4 °F62.6 °F94 %30.06 in6.2 miEast (80°)2.3 mphScattered Clouds
7:00 AM66.2 °F62.6 °F88 %30.06 in6.2 miSouth (170°)2.3 mphMostly Cloudy
8:00 AM66.2 °F64.4 °F94 %30.06 in6.2 miCalmMostly Cloudy
9:00 AM68.0 °F64.4 °F88 %30.09 in6.2 miNNW (340°)3.5 mphMostly Cloudy
10:00 AM74.0 °F65.0 °F67 %12.0 miENE (70°)4.6 mphScattered Clouds
10:00 AM73.4 °F66.2 °F78 %30.09 in6.2 miENE (70°)4.6 mphMostly Cloudy
11:00 AM73.4 °F66.2 °F78 %30.12 in6.2 miEast (80°)5.8 mphMostly Cloudy
12:00 PM77.0 °F66.2 °F69 %6.2 miNE (50°)4.6 mphMostly Cloudy
1:00 PM77.0 °F66.2 °F69 %30.06 in6.2 miWNW (290°)4.6 mphMostly Cloudy
2:00 PM71.6 °F66.2 °F83 %30.06 in6.2 miENE (70°)9.2 mphMostly Cloudy
3:00 PM73.4 °F66.2 °F78 %30.04 in6.2 miENE (70°)8.1 mphMostly Cloudy
4:00 PM75.0 °F65.0 °F64 %12.0 miENE (70°)5.8 mphMostly Cloudy
4:00 PM75.2 °F66.2 °F73 %30.01 in6.2 miENE (70°)5.8 mphMostly Cloudy
5:00 PM75.2 °F64.4 °F69 %30.01 in6.2 miEast (80°)5.8 mphMostly Cloudy
6:00 PM75.2 °F68.0 °F78 %29.98 in6.2 miEast (90°)8.1 mphMostly Cloudy
7:00 PM75.2 °F66.2 °F73 %29.98 in6.2 miEast (90°)8.1 mphMostly Cloudy
8:00 PM73.4 °F66.2 °F78 %29.98 in6.2 miEast (80°)5.8 mphMostly Cloudy
9:00 PM71.6 °F64.4 °F78 %30.01 in6.2 miSouth (170°)2.3 mphScattered Clouds
10:00 PM71.0 °F67.0 °F82 %12.0 miSSE (160°)8.1 mphScattered Clouds
10:00 PM71.6 °F66.2 °F83 %30.01 in6.2 miSSE (160°)8.1 mphMostly Cloudy
11:00 PM69.8 °F66.2 °F88 %30.04 in6.2 miSSE (160°)6.9 mphPartly Cloudy
Hourly data recorded from SBBR, located miles away from Nucleo Bandeirante, Distrito Federal







STORIES FROM OUR PARTNERS